Retour au catalogue

FENGYUN 1C DEB

ActifPO
NORAD 29944·DEBRIS·🇨🇳 China

Lancé May 10, 1999 depuis Taiyuan Satellite Launch Center

Loading…

Prochains Passages (prochaines 24 heures)

TLE

FraisSource: Space-Track

Époque: Sep 13, 2026, 21:56 UTC

1 29944U 99025JS  26256.91438655  .00006645  00000-0  51480-3 0  9997
2 29944  99.0331 234.8680 0154901  72.3588 289.4475 14.92769456 45538

Suivez FENGYUN 1C DEB en temps réel avec AllMySat

Download on the App Store